N492AA KSFB-KSFB

Flight info

Callsign N492AA
Flight time N/A
Altitude VFR015
Route
Aircraft P28A/L-VGD/C

Departure

Time 2026-04-26 14:37
Airport Orlando Sanford International Airport (KSFB)

Arrival

Time N/A
Airport Orlando Sanford International Airport (KSFB)
Time Latitude Longitude Altitude Speed Heading
2026-04-26 14:22 28.78005 -81.25097 52 ft 0 kts 181°
2026-04-26 14:30 28.77996 -81.25085 53 ft 1 kts 123°
2026-04-26 14:30 28.77987 -81.25060 52 ft 8 kts 105°
2026-04-26 14:30 28.77976 -81.25015 52 ft 2 kts 112°
2026-04-26 14:31 28.77971 -81.24999 52 ft 6 kts 104°
2026-04-26 14:31 28.77964 -81.24970 52 ft 2 kts 130°
2026-04-26 14:31 28.77942 -81.24947 52 ft 10 kts 134°
2026-04-26 14:31 28.77866 -81.24857 52 ft 13 kts 134°
2026-04-26 14:32 28.77818 -81.24800 52 ft 6 kts 133°
2026-04-26 14:32 28.77787 -81.24763 52 ft 7 kts 131°
2026-04-26 14:32 28.77766 -81.24720 52 ft 7 kts 94°
2026-04-26 14:32 28.77762 -81.24656 51 ft 7 kts 92°
2026-04-26 14:33 28.77762 -81.24573 50 ft 12 kts 92°
2026-04-26 14:33 28.77763 -81.24463 49 ft 14 kts 89°
2026-04-26 14:33 28.77763 -81.24332 48 ft 18 kts 90°
2026-04-26 14:33 28.77763 -81.24199 47 ft 14 kts 90°
2026-04-26 14:34 28.77763 -81.24107 46 ft 8 kts 91°
2026-04-26 14:34 28.77764 -81.24046 46 ft 8 kts 90°
2026-04-26 14:34 28.77763 -81.23944 46 ft 12 kts 91°
2026-04-26 14:34 28.77764 -81.23811 46 ft 14 kts 92°
2026-04-26 14:35 28.77765 -81.23721 45 ft 12 kts 88°
2026-04-26 14:35 28.77764 -81.23653 45 ft 8 kts 88°
2026-04-26 14:35 28.77765 -81.23585 44 ft 6 kts 90°
2026-04-26 14:35 28.77765 -81.23556 44 ft 1 kts 88°
2026-04-26 14:36 28.77788 -81.23487 43 ft 12 kts 27°
2026-04-26 14:36 28.77842 -81.23502 43 ft 7 kts 299°
2026-04-26 14:36 28.77845 -81.23707 46 ft 52 kts 271°
2026-04-26 14:36 28.77839 -81.24247 166 ft 73 kts 262°
2026-04-26 14:37 28.77807 -81.24785 401 ft 70 kts 259°
2026-04-26 14:37 28.77741 -81.25326 639 ft 66 kts 259°
2026-04-26 14:37 28.77694 -81.25860 827 ft 70 kts 263°
2026-04-26 14:37 28.77813 -81.26414 999 ft 75 kts 298°
2026-04-26 14:38 28.78227 -81.26730 1149 ft 80 kts 345°
2026-04-26 14:38 28.78749 -81.26847 1364 ft 76 kts 300°
2026-04-26 14:38 28.78391 -81.27240 1355 ft 94 kts 175°
2026-04-26 14:38 28.77934 -81.27151 1284 ft 106 kts 161°
2026-04-26 14:39 28.77196 -81.26469 1068 ft 101 kts 114°
2026-04-26 14:39 28.77064 -81.25729 817 ft 96 kts 84°
2026-04-26 14:39 28.77114 -81.24981 666 ft 92 kts 83°
2026-04-26 14:39 28.77160 -81.24243 559 ft 96 kts 83°
2026-04-26 14:40 28.77229 -81.23446 502 ft 99 kts 81°
2026-04-26 14:40 28.77341 -81.22707 475 ft 92 kts 76°
2026-04-26 14:40 28.77560 -81.22093 489 ft 81 kts 58°
2026-04-26 14:40 28.77675 -81.21519 493 ft 74 kts 102°
2026-04-26 14:41 28.77253 -81.21255 366 ft 77 kts 194°
2026-04-26 14:41 28.77013 -81.21725 74 ft 75 kts 286°
2026-04-26 14:41 28.77000 -81.22233 23 ft 54 kts 264°